Simultaneous Nadir Overpasses (SNOs) Predictions

Prediction of SNOs between AQUA and NOAA-19 Satellite Orbit:

Table of predicted SNOs for the next 14.0 days since TLE Epoch: 3/4/2017
Index Date (AQUA) Time (AQUA) Lat,Lon (AQUA) SZA (AQUA ) Date (NOAA-19) Time (NOAA-19) Lat,Lon (NOAA-19) SZA (NOAA-19 ) Distance(km) Time Diff (sec)
1 03/05/2017 05:46:39 -80.95,-127.21 90.67 03/05/2017 05:46:06 -80.96,-127.13 90.66 1.51 33
2 03/05/2017 06:36:06 80.96, 40.32 89.34 03/05/2017 06:37:11 80.95, 40.39 89.30 1.49 65
3 03/07/2017 11:20:25 80.97, -30.82 88.49 03/07/2017 11:20:05 80.96, -30.97 88.51 2.63 20
4 03/07/2017 12:09:51 -80.95, 137.00 91.56 03/07/2017 12:10:59 -80.95, 136.96 91.58 0.71 68
5 03/09/2017 16:54:10 -80.96, 65.87 92.42 03/09/2017 16:53:52 -80.96, 65.89 92.41 0.35 18
6 03/11/2017 22:27:55 80.95, 162.51 86.69 03/11/2017 22:27:50 80.96, 162.44 86.70 1.42 5
7 03/14/2017 04:01:41 -80.97,-101.13 94.18 03/14/2017 04:01:38 -80.96,-101.20 94.17 1.42 3




NCC Satellite Simultaneous Nadir Overpasses (SNOs) Prediction Service
